Weather History for Biloxi, MS

Change the Weather History Date:

Monday, May 12, 2014

  Actual Average Record
Temperature  
Mean Temperature 80 °F -  
Max Temperature 84 °F 81 °F 91 °F (1962)
Min Temperature 76 °F 66 °F 45 °F (1952)
Cooling Degree Days 15    
Growing Degree Days 30 (Base 50)    
Moisture  
Dew Point 73 °F    
Average Humidity 83    
Maximum Humidity 94    
Minimum Humidity 71    
Precipitation  
Precipitation 0.00 in - - ()
Sea Level Pressure  
Sea Level Pressure 30.07 in    
Wind  
Wind Speed 11 mph (SSE)    
Max Wind Speed 18 mph    
Max Gust Speed 22 mph    
Visibility 10 miles    
Events      
Averages and records for this station are not official NWS values.
T = Trace of Precipitation, MM = Missing Value Source: NWS Daily Summary

Daily Weather History Graph

Daily Weather History Graph

Search for Another Location

Airport:

Trip Planner

Search our weather history database for the weather conditions in past years. The results will help you decide how hot, cold, wet, or windy it might be!

Date:

Astronomy

May. 12, 2014 Rise Set
Actual Time 6:03 AM CDT 7:41 PM CDT
Civil Twilight 5:37 AM CDT 8:07 PM CDT
Nautical Twilight 5:06 AM CDT 8:38 PM CDT
Astronomical Twilight 4:33 AM CDT 9:11 PM CDT
Moon 5:47 PM CDT (5/12) 4:31 AM CDT (5/12)
Length of Visible Light 14h 29m
Length of Day
13h 37m
Waxing Gibbous, 95% of the Moon is Illuminated
May 12
Waxing Gibbous
May 14
Full
May 21
Last Quarter
May 28
New
Jun 5
First Quarter

Hourly Weather History & Observations

Time (CDT) Temp. Heat Index Dew Point Humidity Pressure Visibility Wind Dir Wind Speed Gust Speed Precip Events Conditions
12:58 AM 77.5 °F - 74.8 °F 91% 30.03 in 10.0 mi SSE 12.7 mph - N/A   Overcast
1:08 AM 77.0 °F - 75.2 °F 94% 30.02 in 10.0 mi SSE 10.4 mph 19.6 mph N/A   Overcast
1:58 AM 77.5 °F - 74.8 °F 91% 30.01 in 10.0 mi SSE 12.7 mph 19.6 mph N/A   Mostly Cloudy
2:28 AM 77.0 °F - 75.2 °F 94% 30.00 in 10.0 mi SSE 11.5 mph - N/A   Scattered Clouds
2:53 AM 77.0 °F - 73.4 °F 89% 30.00 in 10.0 mi SSE 11.5 mph 19.6 mph N/A   Mostly Cloudy
2:58 AM 77.5 °F - 74.1 °F 89% 30.01 in 10.0 mi SSE 10.4 mph - N/A   Mostly Cloudy
3:03 AM 77.0 °F - 73.4 °F 89% 30.00 in 10.0 mi South 11.5 mph - N/A   Mostly Cloudy
3:58 AM 77.4 °F - 73.9 °F 89% 30.02 in 10.0 mi SSE 11.5 mph 18.4 mph N/A   Mostly Cloudy
4:08 AM 77.0 °F - 73.4 °F 89% 30.01 in 10.0 mi South 10.4 mph 18.4 mph N/A   Mostly Cloudy
4:23 AM 77.0 °F - 73.4 °F 89% 30.01 in 10.0 mi SSE 12.7 mph - N/A   Mostly Cloudy
4:28 AM 77.0 °F - 73.4 °F 89% 30.01 in 10.0 mi South 10.4 mph - N/A   Overcast
4:58 AM 77.2 °F - 73.0 °F 87% 30.03 in 10.0 mi South 10.4 mph - N/A   Scattered Clouds
5:38 AM 77.0 °F - 73.4 °F 89% 30.03 in 10.0 mi South 8.1 mph 18.4 mph N/A   Mostly Cloudy
5:43 AM 77.0 °F - 73.4 °F 89% 30.03 in 10.0 mi South 9.2 mph - N/A   Mostly Cloudy
5:48 AM 77.0 °F - 73.4 °F 89% 30.04 in 10.0 mi South 10.4 mph - N/A   Overcast
5:58 AM 77.2 °F - 73.8 °F 89% 30.05 in 10.0 mi South 10.4 mph - N/A   Overcast
6:28 AM 77.0 °F - 73.4 °F 89% 30.05 in 10.0 mi SSE 10.4 mph - N/A   Scattered Clouds
6:33 AM 77.0 °F - 73.4 °F 89% 30.05 in 10.0 mi SSE 6.9 mph - N/A   Mostly Cloudy
6:53 AM 77.0 °F - 73.4 °F 89% 30.05 in 10.0 mi South 8.1 mph - N/A   Mostly Cloudy
6:58 AM 77.2 °F - 73.8 °F 89% 30.07 in 10.0 mi South 6.9 mph - N/A   Mostly Cloudy
7:08 AM 77.0 °F - 73.4 °F 89% 30.06 in 10.0 mi SE 10.4 mph - N/A   Mostly Cloudy
7:13 AM 77.0 °F - 73.4 °F 89% 30.06 in 10.0 mi SSE 6.9 mph - N/A   Scattered Clouds
7:23 AM 77.0 °F - 73.4 °F 89% 30.07 in 10.0 mi SSE 5.8 mph - N/A   Mostly Cloudy
7:53 AM 78.8 °F - 73.4 °F 83% 30.08 in 10.0 mi SE 6.9 mph - N/A   Mostly Cloudy
7:58 AM 78.3 °F - 73.8 °F 86% 30.09 in 10.0 mi SE 10.4 mph - N/A   Mostly Cloudy
8:03 AM 78.8 °F - 73.4 °F 83% 30.08 in 10.0 mi SE 10.4 mph - N/A   Mostly Cloudy
8:08 AM 78.8 °F - 73.4 °F 83% 30.08 in 10.0 mi SSE 9.2 mph - N/A   Mostly Cloudy
8:33 AM 78.8 °F - 73.4 °F 83% 30.09 in 10.0 mi SSE 8.1 mph - N/A   Mostly Cloudy
8:43 AM 80.6 °F 85.4 °F 73.4 °F 79% 30.09 in 10.0 mi SE 10.4 mph - N/A   Mostly Cloudy
8:48 AM 80.6 °F 85.4 °F 73.4 °F 79% 30.09 in 10.0 mi SE 10.4 mph - N/A   Mostly Cloudy
8:53 AM 80.6 °F 85.4 °F 73.4 °F 79% 30.10 in 10.0 mi SE 10.4 mph - N/A   Mostly Cloudy
8:58 AM 80.2 °F 84.9 °F 73.8 °F 81% 30.11 in 10.0 mi SE 11.5 mph - N/A   Mostly Cloudy
9:03 AM 80.6 °F 85.4 °F 73.4 °F 79% 30.10 in 10.0 mi SE 10.4 mph - N/A   Scattered Clouds
9:38 AM 80.6 °F 85.4 °F 73.4 °F 79% 30.11 in 10.0 mi SE 11.5 mph - N/A   Mostly Cloudy
9:48 AM 80.6 °F 86.2 °F 75.2 °F 84% 30.11 in 10.0 mi ESE 15.0 mph - N/A   Mostly Cloudy
9:53 AM 80.6 °F 86.2 °F 75.2 °F 84% 30.11 in 10.0 mi ESE 8.1 mph - N/A   Mostly Cloudy
9:58 AM 80.8 °F 86.1 °F 74.5 °F 81% 30.12 in 10.0 mi SE 10.4 mph - N/A   Mostly Cloudy
10:03 AM 80.6 °F 85.4 °F 73.4 °F 79% 30.11 in 10.0 mi SE 18.4 mph 21.9 mph N/A   Mostly Cloudy
10:08 AM 80.6 °F 85.4 °F 73.4 °F 79% 30.11 in 10.0 mi SE 13.8 mph 21.9 mph N/A   Scattered Clouds
10:53 AM 82.4 °F 88.2 °F 73.4 °F 74% 30.12 in 10.0 mi SE 12.7 mph - N/A   Mostly Cloudy
10:58 AM 81.9 °F 87.7 °F 74.1 °F 77% 30.13 in 10.0 mi SE 13.8 mph - N/A   Mostly Cloudy
11:08 AM 82.4 °F 88.2 °F 73.4 °F 74% 30.12 in 10.0 mi SE 13.8 mph - N/A   Scattered Clouds
11:48 AM 82.4 °F 88.2 °F 73.4 °F 74% 30.12 in 10.0 mi SE 12.7 mph - N/A   Mostly Cloudy
11:53 AM 82.4 °F 88.2 °F 73.4 °F 74% 30.12 in 10.0 mi SSE 16.1 mph - N/A   Scattered Clouds
11:58 AM 82.9 °F 88.8 °F 73.2 °F 72% 30.13 in 10.0 mi SSE 15.0 mph 19.6 mph N/A   Scattered Clouds
12:43 PM 82.4 °F 88.2 °F 73.4 °F 74% 30.12 in 10.0 mi SE 12.7 mph - N/A   Mostly Cloudy
12:48 PM 82.4 °F 88.2 °F 73.4 °F 74% 30.12 in 10.0 mi SE 13.8 mph - N/A   Mostly Cloudy
12:58 PM 82.8 °F 89.0 °F 73.8 °F 74% 30.13 in 10.0 mi SE 15.0 mph 19.6 mph N/A   Mostly Cloudy
1:08 PM 82.4 °F 88.2 °F 73.4 °F 74% 30.12 in 10.0 mi SE 11.5 mph - N/A   Mostly Cloudy
1:58 PM 83.5 °F 90.6 °F 74.3 °F 74% 30.12 in 10.0 mi SSE 11.5 mph - N/A   Mostly Cloudy
2:58 PM 83.1 °F 89.8 °F 74.1 °F 74% 30.10 in 10.0 mi SE 12.7 mph - N/A   Scattered Clouds
3:58 PM 82.8 °F 88.2 °F 72.7 °F 71% 30.08 in 10.0 mi SE 10.4 mph - N/A   Clear
4:58 PM 82.0 °F 87.4 °F 73.0 °F 74% 30.07 in 10.0 mi ESE 9.2 mph - N/A   Partly Cloudy
5:58 PM 80.1 °F 84.1 °F 72.5 °F 78% 30.05 in 10.0 mi SE 10.4 mph - N/A   Scattered Clouds
6:58 PM 78.6 °F - 73.2 °F 83% 30.05 in 10.0 mi SSE 6.9 mph - N/A   Scattered Clouds
7:03 PM 78.8 °F - 73.4 °F 83% 30.04 in 10.0 mi SE 10.4 mph - N/A   Mostly Cloudy
7:13 PM 78.8 °F - 73.4 °F 83% 30.03 in 10.0 mi SE 10.4 mph - N/A   Scattered Clouds
7:58 PM 77.7 °F - 72.3 °F 83% 30.05 in 10.0 mi SSE 6.9 mph - N/A   Clear
8:58 PM 77.5 °F - 72.7 °F 85% 30.05 in 10.0 mi SSE 10.4 mph - N/A   Scattered Clouds
9:23 PM 77.0 °F - 73.4 °F 89% 30.04 in 10.0 mi SSE 9.2 mph - N/A   Mostly Cloudy
9:28 PM 77.0 °F - 73.4 °F 89% 30.04 in 10.0 mi SE 9.2 mph - N/A   Mostly Cloudy
9:53 PM 77.0 °F - 71.6 °F 83% 30.05 in 10.0 mi SSE 10.4 mph - N/A   Scattered Clouds
9:58 PM 77.2 °F - 72.3 °F 85% 30.05 in 10.0 mi SSE 9.2 mph - N/A   Scattered Clouds
10:23 PM 77.0 °F - 73.4 °F 89% 30.04 in 10.0 mi SE 6.9 mph - N/A   Mostly Cloudy
10:28 PM 77.0 °F - 73.4 °F 89% 30.05 in 10.0 mi SSE 9.2 mph - N/A   Mostly Cloudy
10:48 PM 77.0 °F - 71.6 °F 83% 30.04 in 10.0 mi SSE 8.1 mph - N/A   Mostly Cloudy
10:58 PM 77.0 °F - 71.6 °F 83% 30.05 in 10.0 mi SSE 10.4 mph - N/A   Scattered Clouds
11:08 PM 77.0 °F - 71.6 °F 83% 30.04 in 10.0 mi SSE 6.9 mph - N/A   Mostly Cloudy
11:23 PM 77.0 °F - 71.6 °F 83% 30.03 in 10.0 mi SSE 11.5 mph - N/A   Scattered Clouds
11:28 PM 77.0 °F - 71.6 °F 83% 30.03 in 10.0 mi SSE 10.4 mph - N/A   Mostly Cloudy
11:33 PM 77.0 °F - 71.6 °F 83% 30.03 in 10.0 mi SSE 8.1 mph - N/A   Scattered Clouds
11:58 PM 76.8 °F - 71.6 °F 84% 30.04 in 10.0 mi South 9.2 mph 17.3 mph N/A   Partly Cloudy